#timestamp,LO_Frequency,Hit 
1504764015.6,286046991.1,N
1504764035.5,286046984.8,N
1504764055.3,286046983.4,N
1504764075.1,286046988.2,N
1504764095.9,286046986.5,N
1504764115.7,286046986.1,N
1504764135.5,286046978.6,P
1504764155.4,286046990.2,N
1504764175.2,286046995.8,N
1504764195.0,286046997.5,N
1504764195.9,286046997.5,N
1504764215.8,286046995.7,N
1504764235.6,286046992.6,N
1504764255.4,286046990.9,N
1504764275.3,286046992.2,N
1504764295.1,286046991.1,N
1504764296.0,286046991.1,N
1504764315.8,286046989.6,N
1504764335.6,286046989.5,N
1504764355.5,286046985.9,P
1504764375.3,286046996.0,N
1504764395.2,286046995.5,N
1504764415.9,286046999.4,N
1504764435.7,286046999.6,N
1504764455.5,286046998.0,N
1504764475.4,286046999.6,N
1504764495.2,286047008.9,N
1504764515.0,286047017.3,N
1504764515.9,286047017.3,N
1504764535.8,286047023.5,N
1504764555.6,286047025.8,N
1504764575.4,286047031.5,N
1504764595.3,286047032.5,N
1504764615.1,286047036.0,N
1504764635.8,286047040.4,N
1504764655.7,286047043.4,N
1504764675.5,286047047.1,N
1504764695.3,286047048.7,N
1504764715.2,286047048.6,N
1504764735.9,286047050.0,N
1504764755.7,286047050.5,N
1504764775.6,286047048.1,N
1504764795.4,286047049.9,N
1504764815.2,286047050.2,N
1504764835.0,286047049.5,N
1504764835.9,286047049.5,N
1504764855.8,286047049.3,N
1504764875.6,286047056.3,N
1504764895.4,286047057.0,N
1504764915.3,286047058.2,N
1504764935.1,286047056.2,N
1504764955.8,286047059.6,N
1504764975.7,286047060.0,P
1504764995.5,286047021.7,N
1504765015.3,286047020.7,N
1504765035.2,286047020.7,N
1504765055.9,286047021.2,N
1504765075.7,286047022.7,N
1504765095.6,286047023.1,N
1504765115.4,286047020.5,N
1504765135.2,286047019.8,N
1504765155.1,286047021.8,N
1504765156.0,286047021.8,N
1504765175.8,286047021.9,N
1504765195.6,286047017.5,N
1504765215.5,286047020.4,N
1504765235.3,286047020.6,N
1504765255.1,286047021.7,N
1504765275.8,286047017.8,N
1504765295.7,286047022.7,N
1504765315.5,286047023.7,N
1504765335.3,286047025.4,N
1504765355.2,286047022.8,N
1504765375.9,286047025.1,N
1504765395.7,286047022.2,N
1504765415.6,286047026.0,P
1504765435.4,286047003.8,P
1504765455.2,286047002.6,N
1504765475.1,286046996.9,N
1504765476.0,286046996.9,N
1504765495.8,286046998.1,N
1504765515.6,286046998.4,N
1504765535.5,286046999.5,N
1504765555.3,286046998.6,N
1504765575.1,286046996.5,N
1504765595.9,286046997.8,N
1504765615.7,286046995.6,N
1504765635.5,286046995.3,N
1504765655.4,286046990.7,N
1504765675.2,286046993.2,N
1504765695.0,286046992.0,N
1504765695.9,286046992.0,N
1504765715.8,286046997.9,N
1504765735.6,286046995.4,N
1504765755.4,286046997.6,N
1504765775.2,286046996.9,N
1504765795.1,286046999.1,N
1504765796.0,286046999.1,N
1504765815.8,286046995.6,N
1504765835.6,286046997.6,N
1504765855.5,286046996.9,N
1504765875.3,286046995.0,N
1504765895.1,286046993.6,N
1504765915.9,286046996.2,N
1504765935.7,286046996.3,N
1504765955.5,286046992.6,N
1504765975.4,286046996.4,N
1504765995.2,286046997.2,N
1504766015.0,286047000.5,N
1504766015.9,286047000.5,N
1504766035.8,286047000.7,N
1504766055.6,286046998.6,N
1504766075.4,286046997.0,N
1504766095.3,286046996.8,N
1504766115.1,286047000.4,N
1504766116.0,286047000.4,N
1504766135.8,286047002.7,N
1504766155.7,286047000.1,N
1504766175.5,286047000.1,N
1504766195.3,286046998.3,N
1504766215.1,286046998.7,N
1504766235.9,286046997.2,N
1504766255.7,286046995.3,N
1504766275.5,286046995.2,N
1504766295.4,286046992.4,P
1504766315.2,286046993.6,N
1504766335.0,286046995.1,N
1504766336.0,286046995.1,N
1504766355.8,286046993.8,P
1504766375.6,286046996.6,P
1504766395.5,286046998.9,N
1504766415.3,286046999.5,N
1504766435.1,286046997.1,N
1504766455.8,286046996.5,N
1504766475.7,286046999.2,N
1504766495.5,286046996.9,N
1504766515.3,286046998.3,N
1504766535.2,286046999.3,N
1504766555.9,286047001.0,N
1504766575.7,286047001.2,N
1504766595.6,286047000.7,N
1504766615.4,286047000.6,N
1504766635.2,286046999.6,N
1504766655.1,286047001.5,N
1504766656.0,286047001.5,N
1504766675.8,286047003.1,N
1504766695.6,286047007.2,N
1504766715.5,286047002.3,N
1504766735.3,286047001.9,N
1504766755.1,286047000.2,N
1504766775.8,286047004.0,N
1504766795.7,286046996.8,N
1504766815.5,286046994.8,N
1504766835.3,286046991.9,N
1504766855.2,286046995.9,N
1504766875.9,286046994.0,N
1504766895.7,286046992.5,N
1504766915.6,286046994.1,N
1504766935.4,286046997.2,N
1504766955.2,286046999.9,N
1504766975.1,286046998.3,N
1504766976.0,286046998.3,N
1504766995.8,286046995.0,N
1504767015.6,286046995.9,N
1504767035.5,286046995.4,N
1504767055.3,286046996.1,N
1504767075.1,286046997.5,N
1504767095.9,286046996.8,N
1504767115.7,286046995.8,N
1504767135.5,286046995.6,N
1504767155.3,286046995.6,N
1504767175.2,286046992.7,N
1504767195.0,286046997.9,N
1504767195.9,286046997.9,N
1504767215.7,286046996.3,N
1504767235.6,286046992.6,N
1504767255.4,286046991.2,N
1504767275.3,286046990.7,P
1504767295.1,286046992.9,N
1504767296.0,286046992.9,N
1504767315.8,286046994.4,N
1504767335.6,286046996.0,N
1504767355.5,286046992.8,P
1504767375.3,286046998.9,N
1504767395.2,286046998.8,N
1504767415.9,286046998.3,N
1504767435.7,286046998.6,N
1504767455.5,286047001.0,N
1504767475.4,286047002.7,N
1504767495.2,286047001.0,N
1504767515.0,286047000.9,N
1504767515.9,286047000.9,N
1504767535.8,286046998.8,N
1504767555.6,286046996.6,N
1504767575.4,286047000.5,N
1504767595.3,286046995.3,N
